Location: Brusselsch Zeekanaal
(50.8667°N, 4.3667°E)
Time: 02:55:10
(UTC+00:00)

Cosmos 2360 Rocket - Pass Details

Date: 08 November 2025
Orbit: 833 x 843 km, 71.0° (Epoch: 15 December)

Event Time Altitude Azimuth Distance (km) Brightness Sun altitude
Exits shadow 02:17:34 20° 59° (ENE) 1,850 4.4 -41.7°
Drops below altitude 10° 02:19:36 10° 45° (NE) 2,472 5.2 -41.4°
Sets 02:22:17 0° 36° (NE) 3,411 6.1 -41.1°
